Date String (YYYY-MM-DD hh:mm:ss) UTC,Instrument flags,absolute air pressure of the measurement (hPa),sample flow rate (lpm),inlet stack bypass flow (lpm),air temperature of the measurement (°C),ambient temperature measured by the external sensor (°C),aerosol sample conditioner tube jacket temperature (°C),OPC LED temperature (°C),internal box temperature (°C),relative humidity of the measurement (%),span deviation,mass concentration of particles derived from Lorenz-Mie calculation of OPC scattering (μg/m³),mass concentration of particles derived from Lorenz-Mie calculation of OPC scattering (μg/m³),mass concentration of particles derived from Lorenz-Mie calculation of OPC scattering (μg/m³)
DateTimeUTC,F1_M11,P_M11,Q1_M11,Q2_M11,T1_M11,T2_M11,T3_M11,T4_M11,T5_M11,U1_M11,ZSPAN_M11,X0_M11,X2_M11,X1_M11
2024-03-22 00:00:00,SystemResetWarning,0824.0,4.98,000.00,025.7,025.2,000.0,034.0,027.6,09.4,0000.0,0008.67,0002.68,0001.29
2024-03-22 00:01:00,SystemResetWarning,0824.0,5.00,000.00,025.8,025.3,000.0,034.0,027.7,09.2,0000.0,0008.64,0002.74,0001.31
2024-03-22 00:02:00,SystemResetWarning,0824.0,5.01,000.00,025.8,025.3,000.0,034.0,027.7,08.8,0000.0,0008.45,0002.66,0001.31
2024-03-22 00:03:00,SystemResetWarning,0824.0,5.01,000.00,025.8,025.3,000.0,034.1,027.7,09.1,0000.0,0008.17,0002.62,0001.30
2024-03-22 00:04:00,SystemResetWarning,0824.0,5.01,000.00,025.9,025.4,000.0,034.1,027.8,09.3,0000.0,0008.07,0002.65,0001.31
2024-03-22 00:05:00,SystemResetWarning,0824.0,5.00,000.00,025.9,025.4,000.0,034.1,027.8,09.3,0000.0,0007.72,0002.64,0001.32
2024-03-22 00:06:00,SystemResetWarning,0824.0,4.99,000.00,025.9,025.4,000.0,034.2,027.8,09.4,0000.0,0007.55,0002.69,0001.33
2024-03-22 00:07:00,SystemResetWarning,0824.0,4.99,000.00,026.0,025.4,000.0,034.2,027.8,09.5,0000.0,0007.54,0002.72,0001.34
2024-03-22 00:08:00,SystemResetWarning,0824.1,5.01,000.00,026.0,025.5,000.0,034.2,027.9,08.9,0000.0,0007.46,0002.71,0001.35
2024-03-22 00:09:00,SystemResetWarning,0824.1,5.01,000.00,026.0,025.5,000.0,034.2,027.9,08.9,0000.0,0007.77,0002.68,0001.37
2024-03-22 00:10:00,SystemResetWarning,0824.2,4.99,000.00,026.0,025.3,000.0,034.3,027.8,09.0,0000.0,0008.19,0002.60,0001.37
2024-03-22 00:11:00,SystemResetWarning,0824.1,4.99,000.00,025.8,023.4,000.0,034.3,026.7,08.9,0000.0,0008.01,0002.53,0001.36
2024-03-22 00:12:00,SystemResetWarning,0824.0,5.02,000.00,025.4,022.4,000.0,034.3,026.1,09.0,0000.0,0008.08,0002.55,0001.34
2024-03-22 00:13:00,SystemResetWarning,0824.1,5.00,000.00,025.2,022.6,000.0,034.2,026.2,09.3,0000.0,0008.18,0002.62,0001.35
2024-03-22 00:14:00,SystemResetWarning,0824.2,5.00,000.00,025.2,023.0,000.0,034.1,026.4,09.3,0000.0,0007.80,0002.69,0001.37
2024-03-22 00:15:00,SystemResetWarning,0824.2,5.01,000.00,025.2,023.3,000.0,034.0,026.6,09.7,0000.0,0007.59,0002.62,0001.34
2024-03-22 00:16:00,SystemResetWarning,0824.1,4.99,000.00,025.2,023.7,000.0,033.9,026.8,10.0,0000.0,0007.41,0002.51,0001.31
2024-03-22 00:17:00,SystemResetWarning,0824.2,4.99,000.00,025.2,023.9,000.0,033.9,026.9,09.9,0000.0,0007.35,0002.43,0001.28
2024-03-22 00:18:00,SystemResetWarning,0824.1,4.99,000.00,025.2,024.2,000.0,033.8,027.0,09.5,0000.0,0007.34,0002.36,0001.27
2024-03-22 00:19:00,SystemResetWarning,0824.1,5.00,000.00,025.3,024.3,000.0,033.8,027.1,09.5,0000.0,0006.84,0002.38,0001.26
2024-03-22 00:20:00,SystemResetWarning,0824.2,5.00,000.00,025.3,024.5,000.0,033.8,027.2,09.2,0000.0,0006.09,0002.40,0001.25
2024-03-22 00:21:00,SystemResetWarning,0824.2,5.00,000.00,025.4,024.6,000.0,033.8,027.2,09.3,0000.0,0005.07,0002.44,0001.24
2024-03-22 00:22:00,SystemResetWarning,0824.2,5.00,000.00,025.4,024.7,000.0,033.8,027.3,09.5,0000.0,0005.13,0002.46,0001.24
2024-03-22 00:23:00,SystemResetWarning,0824.2,5.00,000.00,025.5,024.8,000.0,033.8,027.3,09.4,0000.0,0004.91,0002.39,0001.24
2024-03-22 00:24:00,SystemResetWarning,0824.2,5.00,000.00,025.5,024.9,000.0,033.8,027.4,09.4,0000.0,0004.75,0002.32,0001.23
2024-03-22 00:25:00,SystemResetWarning,0824.2,5.00,000.00,025.5,025.0,000.0,033.9,027.4,08.7,0000.0,0004.97,0002.24,0001.21
2024-03-22 00:26:00,SystemResetWarning,0824.3,4.99,000.00,025.6,025.0,000.0,033.9,027.5,08.7,0000.0,0006.30,0002.23,0001.21
2024-03-22 00:27:00,SystemResetWarning,0824.2,4.99,000.00,025.6,025.1,000.0,033.9,027.5,09.0,0000.0,0007.58,0002.28,0001.23
2024-03-22 00:28:00,SystemResetWarning,0824.3,5.00,000.00,025.7,025.1,000.0,033.9,027.6,09.0,0000.0,0008.16,0002.32,0001.26
2024-03-22 00:29:00,SystemResetWarning,0824.3,5.00,000.00,025.7,025.2,000.0,033.9,027.6,09.0,0000.0,0008.28,0002.34,0001.26
2024-03-22 00:30:00,SystemResetWarning,0824.3,5.00,000.00,025.8,025.2,000.0,034.0,027.6,08.8,0000.0,0008.18,0002.33,0001.25
2024-03-22 00:31:00,SystemResetWarning,0824.3,5.00,000.00,025.8,025.3,000.0,034.0,027.7,08.8,0000.0,0008.16,0002.39,0001.26
2024-03-22 00:32:00,SystemResetWarning,0824.3,5.00,000.00,025.8,025.3,000.0,034.0,027.7,08.9,0000.0,0008.17,0002.33,0001.27
2024-03-22 00:33:00,SystemResetWarning,0824.4,5.01,000.00,025.8,025.3,000.0,034.1,027.7,08.7,0000.0,0008.41,0002.31,0001.28
2024-03-22 00:34:00,SystemResetWarning,0824.4,5.00,000.00,025.9,025.4,000.0,034.1,027.8,09.0,0000.0,0008.39,0002.27,0001.28
2024-03-22 00:35:00,SystemResetWarning,0824.3,5.00,000.00,025.9,025.4,000.0,034.1,027.8,09.2,0000.0,0008.46,0002.35,0001.29
2024-03-22 00:36:00,SystemResetWarning,0824.4,5.01,000.00,025.9,025.4,000.0,034.1,027.8,08.9,0000.0,0008.46,0002.42,0001.31
2024-03-22 00:37:00,SystemResetWarning,0824.3,4.99,000.00,026.0,025.4,000.0,034.2,027.9,09.0,0000.0,0008.44,0002.44,0001.31
2024-03-22 00:38:00,SystemResetWarning,0824.4,4.98,000.00,026.0,025.5,000.0,034.2,027.9,08.7,0000.0,0008.01,0002.40,0001.32
2024-03-22 00:39:00,SystemResetWarning,0824.4,5.03,000.00,026.0,025.5,000.0,034.2,027.9,08.7,0000.0,0007.93,0002.42,0001.31
2024-03-22 00:40:00,SystemResetWarning,0824.4,4.98,000.00,025.9,024.1,000.0,034.3,027.1,08.9,0000.0,0007.88,0002.47,0001.32
2024-03-22 00:41:00,SystemResetWarning,0824.4,5.02,000.00,025.5,022.3,000.0,034.3,026.1,09.0,0000.0,0007.97,0002.50,0001.32
2024-03-22 00:42:00,SystemResetWarning,0824.4,5.01,000.00,025.2,022.3,000.0,034.3,026.0,09.1,0000.0,0007.88,0002.44,0001.33
2024-03-22 00:43:00,SystemResetWarning,0824.4,5.00,000.00,025.1,022.7,000.0,034.1,026.3,09.6,0000.0,0008.06,0002.49,0001.33
2024-03-22 00:44:00,SystemResetWarning,0824.4,5.00,000.00,025.1,023.0,000.0,034.0,026.5,09.8,0000.0,0007.96,0002.58,0001.34
2024-03-22 00:45:00,SystemResetWarning,0824.4,4.99,000.00,025.1,023.4,000.0,033.9,026.7,09.8,0000.0,0008.00,0002.62,0001.36
2024-03-22 00:46:00,SystemResetWarning,0824.4,4.99,000.00,025.1,023.7,000.0,033.8,026.8,10.0,0000.0,0007.91,0002.56,0001.35
2024-03-22 00:47:00,SystemResetWarning,0824.4,5.01,000.00,025.2,024.0,000.0,033.8,026.9,09.8,0000.0,0007.86,0002.55,0001.35
2024-03-22 00:48:00,SystemResetWarning,0824.4,5.01,000.00,025.2,024.2,000.0,033.8,027.0,09.4,0000.0,0007.05,0002.51,0001.34
2024-03-22 00:49:00,SystemResetWarning,0824.3,5.00,000.00,025.3,024.3,000.0,033.8,027.1,09.5,0000.0,0006.20,0002.47,0001.33
2024-03-22 00:50:00,SystemResetWarning,0824.4,4.99,000.00,025.3,024.5,000.0,033.8,027.1,09.5,0000.0,0005.29,0002.44,0001.31
2024-03-22 00:51:00,SystemResetWarning,0824.4,5.00,000.00,025.3,024.6,000.0,033.8,027.2,09.2,0000.0,0005.18,0002.43,0001.31
2024-03-22 00:52:00,SystemResetWarning,0824.4,5.00,000.00,025.4,024.6,000.0,033.8,027.2,09.5,0000.0,0004.96,0002.38,0001.31
2024-03-22 00:53:00,SystemResetWarning,0824.4,5.00,000.00,025.4,024.7,000.0,033.8,027.3,09.3,0000.0,0006.26,0002.35,0001.30
2024-03-22 00:54:00,SystemResetWarning,0824.4,5.00,000.00,025.4,024.8,000.0,033.8,027.3,09.2,0000.0,0006.26,0002.32,0001.28
2024-03-22 00:55:00,SystemResetWarning,0824.4,5.00,000.00,025.5,024.8,000.0,033.8,027.3,09.1,0000.0,0006.43,0002.28,0001.28
2024-03-22 00:56:00,SystemResetWarning,0824.3,5.00,000.00,025.5,024.8,000.0,033.8,027.4,09.3,0000.0,0006.46,0002.28,0001.27
2024-03-22 00:57:00,SystemResetWarning,0824.4,5.00,000.00,025.5,024.9,000.0,033.8,027.4,09.6,0000.0,0006.78,0002.30,0001.26
2024-03-22 00:58:00,SystemResetWarning,0824.3,5.00,000.00,025.6,024.9,000.0,033.9,027.4,09.3,0000.0,0007.42,0002.27,0001.25
2024-03-22 00:59:00,SystemResetWarning,0824.4,5.00,000.00,025.6,025.0,000.0,033.9,027.5,09.2,0000.0,0007.45,0002.30,0001.25
